This is the latest recevied weather packets stored in our database for station/object OE6PLD-13. If no packets are shown the sender has not sent any weather packets the latest 10 day(s).
| Time | Temp. | Humidity | Pressure | Rain* | Wind** | Luminosity | Snow |
|---|---|---|---|---|---|---|---|
| 1777448838 | 11.67° C | 45% | 1017 hPa | 0.76 mm | - | 74 W/m² | - |
| 1777448655 | 11.67° C | 46% | 1017 hPa | 0.76 mm | - | 78 W/m² | - |
| 1777448471 | 11.67° C | 46% | 1016.9 hPa | 0.76 mm | - | 78 W/m² | - |
| 1777448288 | 11.67° C | 46% | 1017.1 hPa | 0.76 mm | - | 71 W/m² | - |
| 1777448105 | 11.67° C | 46% | 1017.1 hPa | 0.76 mm | - | 73 W/m² | - |
| 1777447922 | 11.67° C | 47% | 1016.8 hPa | 0.76 mm | - | 77 W/m² | - |
| 1777447738 | 11.67° C | 46% | 1016.8 hPa | 0.76 mm | - | 76 W/m² | - |
| 1777447555 | 11.67° C | 47% | 1017.1 hPa | 0.76 mm | - | 64 W/m² | - |
| 1777447372 | 11.67° C | 46% | 1016.6 hPa | 0.76 mm | - | 62 W/m² | - |
| 1777447188 | 11.67° C | 47% | 1016.7 hPa | 0.76 mm | - | 65 W/m² | - |
| 1777447005 | 11.67° C | 46% | 1016.8 hPa | 0.76 mm | - | 72 W/m² | - |
| 1777446821 | 11.67° C | 46% | 1016.6 hPa | 0.76 mm | - | 79 W/m² | - |
| 1777446638 | 11.67° C | 45% | 1016.6 hPa | 0.76 mm | - | 80 W/m² | - |
| 1777446454 | 11.67° C | 46% | 1016.5 hPa | 0.76 mm | - | 79 W/m² | - |
| 1777446271 | 11.67° C | 45% | 1016.7 hPa | 0.76 mm | - | 78 W/m² | - |
| 1777446088 | 11.67° C | 45% | 1016.7 hPa | 0.76 mm | - | 80 W/m² | - |
| 1777445905 | 11.67° C | 45% | 1016.5 hPa | 0.76 mm | - | 86 W/m² | - |
| 1777445721 | 11.67° C | 44% | 1016.6 hPa | 0.76 mm | - | 89 W/m² | - |
| 1777445538 | 11.67° C | 44% | 1016.5 hPa | 0.76 mm | - | 87 W/m² | - |
| 1777445355 | 11.67° C | 43% | 1016.6 hPa | 0.76 mm | - | 86 W/m² | - |
| 1777445171 | 11.67° C | 45% | 1016.6 hPa | 0.76 mm | - | 94 W/m² | - |
| 1777444988 | 11.67° C | 45% | 1016.5 hPa | 0.76 mm | - | 98 W/m² | - |
| 1777444804 | 11.67° C | 46% | 1016.6 hPa | 0.76 mm | - | 85 W/m² | - |
| 1777444621 | 11.67° C | 45% | 1016.4 hPa | 0.76 mm | - | 79 W/m² | - |
| 1777444438 | 11.67° C | 45% | 1016.6 hPa | 0.76 mm | - | 68 W/m² | - |
* Rain latest hour (hover to see other rain measurements)
** Current wind speed in m/s (hover to see current wind gust speed)